Location: Newark
(43.6583°N, 1.6617°E)
Time: 16:32:00
(UTC+00:00)

Courier 1B - Pass Details

Date: 27 August 2019
Orbit: 962 x 1209 km, 28.3° (Epoch: 16 September)

Event Time Altitude Azimuth Distance (km) Brightness Sun altitude
Rises 16:34:46 0° 236° (SW) 3,897 11.7 21.3°
Reaches altitude 10° 16:38:18 10° 221° (SW) 2,893 10.8 20.7°
Maximum altitude 16:43:18 21° 175° (S) 2,135 9.4 19.8°
Drops below altitude 10° 16:48:07 10° 129° (SE) 2,772 9.5 18.9°
Sets 16:51:25 0° 114° (ESE) 3,689 10.0 18.3°
